ATLAS 5 CENTAUR DEB, 44652

Orbit data source: Space-Track

ATLAS 5 CENTAUR DEB, 44652 is space debris in HEO originally from a launch on Wed, 17 Oct 2018 UTC launched from the Air Force Eastern Test Range (AFETR). Debris objects in space refer to the collection of defunct objects orbiting the Earth. Examples of debris include non-operational satellites, rocket bodies, and fragments generated from explosions, collisions, or faulty payload assembly.

Loading next visibility...
Identifier
44652, 2018-079N
Orbit
HEO
Country
Flag of USUS
Related business
Flag of USUnited Launch Alliance/Lockheed Martin (US)
Manufacturer
ULA Decatur
Mission
Spacecraft
Bus & Motor
Unknown
Mass
Unknown
Launch date (UTC)
2018-10-17 (8 years ago)
Launch vehicle
Unknown
Launch site
Air Force Eastern Test Range (AFETR)
Object type
Payload
Rocket body
Debris
Shape & HBR
Unknown shape, 1.1 m
Radar Cross Section
Medium (>0.1 m² and <1 m²)

Expand to show TLE details & history
Last TLE update: 4 weeks ago

TLE from 4 weeks ago
0 ATLAS 5 CENTAUR DEB
1 44652U 18079N   26229.45033039 -.00000143  00000-0  00000-0 0  9993
2 44652  13.2193  29.1980 4426134 334.6294   8.8621  1.86501360 53313
Epoch: 2026-08-17T10:48Z
TLE epoch observation values (Epoch: 2026-08-17T10:48:28.545Z)
Latitude
-0.00001°
Longitude
-98.71959°
Altitude
9,632.594 km
Speed
5.958 km/s
True Right ascension
01h 56m 55s
True Declination
0° 00' 00"
Sunlit
Object was in daylight at epoch
Visualization orbit readout
Latitude
Unknown
Longitude
Unknown
Altitude
Unknown
Speed
Unknown
Apparent Right ascension
Unknown
Apparent Declination
Unknown
Sunlit
N/A
Visualization observer readout
Local Sidereal Time
17:12:02
Azimuth
Unknown
Elevation
Unknown
Doppler factor
Unknown
Orbital elements
Apogee altitude
33,843.726 km
Perigee altitude
9,162.498 km
Semi-major axis
27,881.249 km
Eccentricity
0.44261
Inclination
13.2193°
RAAN
29.198°
Arg. of periapsis
334.6294°
True anomaly
25.07883°
Mean anomaly
8.8621°
Eccentric anomaly
15.74268°
Mean motion
0.4662 °/min
Orbital period
772.2 mins
BSTAR
0
Loading maneuver chart data...
Computing Atmospheric mass density...

Documentation

Showing up to 5 results
|